Regional Weather Roundup
Issued by NWS

Home | Current Version | Previous Version | Graphics & Text | Print | Product List | Glossary On
Versions: 1 2 3 4 5 6 7 8 9 10 11 12 13 14 15 16 17 18 19 20 21 22 23 24 25 26 27 28 29 30 31 32 33 34 35 36 37 38 39 40 41 42 43 44 45 46 47 48 49 50
000
ASUS43 KLMK 262002
RWRKY
KENTUCKY REGIONAL WEATHER ROUNDUP
NATIONAL WEATHER SERVICE LOUISVILLE KY
400 PM EDT TUE JUL 26 2016

NOTE "FAIR" INDICATES FEW OR NO CLOUDS BELOW 12,000 FEET
WITH NO SIGNIFICANT WEATHER AND/OR OBSTRUCTIONS TO VISIBILITY.

KYZ001>023-026-027-061>063-070>075-262100-
WESTERN AND SOUTH CENTRAL KENTUCKY

CITY           SKY/WX    TMP DP  RH WIND       PRES   REMARKS
PADUCAH        SUNNY     93  76  57 CALM      29.95F HX 105
HENDERSON      PTSUNNY   88  75  66 NW3       29.96F HX  97
OWENSBORO      MOSUNNY   91  76  61 W6        29.98F HX 102
HOPKINSVILLE   SUNNY     91  73  55 VRB1      29.97F HX 100
BOWLING GREEN  MOSUNNY   94  72  48 W5        29.97F HX 102
GLASGOW        NOT AVBL
$$

KYZ024-025-028>034-038-045-046-053-262100-
NORTH CENTRAL KENTUCKY

CITY           SKY/WX    TMP DP  RH WIND       PRES   REMARKS
LOUISVILLE/SDF PTSUNNY   92  72  51 SW9       29.96F HX  99
LOUISVILLE/LOU MOSUNNY   93  71  48 MISG      29.97F HX 100
FORT KNOX      SUNNY     90  74  60 SW7       29.97F HX  99
$$

KYZ035>037-039>044-047>052-055>060-089>105-262100-
NORTHEAST KENTUCKY

CITY           SKY/WX    TMP DP  RH WIND       PRES   REMARKS
LEXINGTON      MOSUNNY   91  72  53 W10       30.00F HX  98
COVINGTON      CLOUDY    80  74  81 CALM      30.02F
FRANKFORT      MOSUNNY   91  73  55 W6        29.98F HX  99
$$

KYZ054-064>069-076>088-106>120-262100-
SOUTHEAST KENTUCKY

CITY           SKY/WX    TMP DP  RH WIND       PRES   REMARKS
JACKSON        MOSUNNY   89  74  60 CALM      30.03F HX  98
LONDON         CLOUDY    93  69  45 MISG      30.02F HX  98
SOMERSET       SUNNY     90  70  51 W6        30.02F HX  95
MIDDLESBORO    MOSUNNY   89  73  59 N6        30.02F HX  96
MONTICELLO     MOCLDY   N/A N/A N/A W5        30.02F
$$





USA.gov is the U.S. government's official web portal to all federal, state and local government web resources and services.